Location: Ward Pound Ridge Reservation
(41.2500°N, 73.6000°W)
Time: 03:47:04
(UTC-04:00)

N. Korean satellite - Pass Details

Date: 08 October 2017
Orbit: 459 x 517 km, 97.2° (Epoch: 23 October)

Event Time Altitude Azimuth Distance (km) Brightness Sun altitude
Rises 20:10:06 0° 216° (SW) 2,576 10.6 -20.7°
Reaches altitude 10° 20:13:59 10° 258° (WSW) 1,684 10.3 -21.4°
Maximum altitude 20:14:39 10° 269° (W) 1,657 10.4 -21.5°
Drops below altitude 10° 20:15:19 10° 280° (W) 1,680 10.5 -21.6°
Sets 20:19:10 0° 323° (NW) 2,550 11.0 -22.3°
